Location: Winthrop
(48.4780°N, 120.1850°W)
Time: 00:56:55
(UTC-07:00)

S-56A Canister/Altair - Pass Details

Date: 01 June 2023
Orbit: 640 x 2489 km, 38.9° (Epoch: 29 September)

Event Time Altitude Azimuth Distance (km) Brightness Sun altitude
Rises 03:57:46 0° 279° (W) 6,165 11.8 -8.9°
Reaches altitude 10° 04:02:20 10° 272° (W) 5,096 11.3 -8.4°
Maximum altitude 04:14:41 36° 214° (SW) 3,026 10.1 -7.0°
Drops below altitude 10° 04:24:24 10° 153° (SSE) 3,999 11.0 -5.8°
Sets 04:27:32 0° 145° (SE) 4,735 11.5 -5.5°
